Date String (YYYY-MM-DD hh:mm:ss) UTC,Instrument flags,Ambient pressure (hPa),Sample flow (lpm),Bypass flow (lpm),Sample temperature (°C),Ambient temperature (°C),ASC tube jacket temperature (°C),LED temperature (°C),Box temperature (°C),Sample RH (%),Span deviation,Mass concentration (μg/m³),Mass concentration (μg/m³),Mass concentration (μg/m³)
DateTimeUTC,F1_M11,P_M11,Q1_M11,Q2_M11,T1_M11,T2_M11,T3_M11,T4_M11,T5_M11,U1_M11,ZSPAN_M11,X0_M11,X2_M11,X1_M11
2022-07-01 01:00:00,,0827.7,5.00,0.00,29.5,27.6,00.0,38.3,31.3,20.3,0000.0,0008.42,0002.90,0001.73
2022-07-01 01:01:00,,0827.7,5.00,0.00,29.5,27.7,00.0,38.3,31.3,20.5,0000.0,0008.41,0002.87,0001.71
2022-07-01 01:02:00,,0827.7,5.00,0.00,29.5,27.8,00.0,38.3,31.4,20.4,0000.0,0008.60,0002.80,0001.71
2022-07-01 01:03:00,,0827.7,4.99,0.00,29.5,28.0,00.0,38.3,31.4,20.8,0000.0,0008.59,0002.82,0001.70
2022-07-01 01:04:00,,0827.7,5.00,0.00,29.5,28.1,00.0,38.3,31.4,20.7,0000.0,0008.77,0002.85,0001.70
2022-07-01 01:05:00,,0827.7,4.99,0.00,29.5,28.2,00.0,38.3,31.4,20.4,0000.0,0008.79,0002.85,0001.70
2022-07-01 01:06:00,,0827.7,5.00,0.00,29.5,28.3,00.0,38.3,31.5,20.4,0000.0,0008.68,0002.84,0001.70
2022-07-01 01:07:00,,0827.7,5.00,0.00,29.6,28.4,00.0,38.3,31.5,20.4,0000.0,0008.59,0002.81,0001.69
2022-07-01 01:08:00,,0827.7,4.99,0.00,29.6,28.5,00.0,38.3,31.5,20.3,0000.0,0008.58,0002.78,0001.68
2022-07-01 01:09:00,,0827.7,5.00,0.00,29.6,28.6,00.0,38.3,31.6,20.3,0000.0,0007.67,0002.79,0001.68
2022-07-01 01:10:00,,0827.7,5.01,0.00,29.6,28.6,00.0,38.3,31.6,20.4,0000.0,0006.87,0002.78,0001.67
2022-07-01 01:11:00,,0827.7,5.01,0.00,29.7,28.7,00.0,38.4,31.7,20.6,0000.0,0006.78,0002.73,0001.66
2022-07-01 01:12:00,,0827.6,5.00,0.00,29.7,28.6,00.0,38.4,31.6,20.5,0000.0,0006.76,0002.68,0001.66
2022-07-01 01:13:00,,0827.6,5.01,0.00,29.7,27.9,00.0,38.3,31.5,20.3,0000.0,0007.51,0002.72,0001.66
2022-07-01 01:14:00,,0827.5,5.01,0.00,29.6,27.6,00.0,38.3,31.4,20.5,0000.0,0007.78,0002.63,0001.64
2022-07-01 01:15:00,,0827.5,5.01,0.00,29.6,27.6,00.0,38.3,31.4,20.5,0000.0,0008.15,0002.55,0001.62
2022-07-01 01:16:00,,0827.6,5.00,0.00,29.5,27.6,00.0,38.3,31.4,20.6,0000.0,0008.26,0002.54,0001.62
2022-07-01 01:17:00,,0827.7,4.99,0.00,29.5,27.8,00.0,38.3,31.4,20.8,0000.0,0008.27,0002.54,0001.62
2022-07-01 01:18:00,,0827.5,4.99,0.00,29.5,27.9,00.0,38.3,31.4,20.7,0000.0,0008.27,0002.54,0001.62
2022-07-01 01:19:00,,0827.5,5.00,0.00,29.5,28.0,00.0,38.3,31.4,20.4,0000.0,0008.24,0002.55,0001.62
2022-07-01 01:20:00,,0827.6,5.00,0.00,29.5,28.1,00.0,38.3,31.4,20.4,0000.0,0008.18,0002.57,0001.63
2022-07-01 01:21:00,,0827.5,5.01,0.00,29.5,28.3,00.0,38.3,31.5,20.5,0000.0,0008.11,0002.54,0001.62
2022-07-01 01:22:00,,0827.6,5.00,0.00,29.6,28.4,00.0,38.3,31.5,20.6,0000.0,0008.22,0002.57,0001.62
2022-07-01 01:23:00,,0827.6,5.00,0.00,29.6,28.4,00.0,38.3,31.5,20.6,0000.0,0008.16,0002.57,0001.63
2022-07-01 01:24:00,,0827.6,4.99,0.00,29.6,28.5,00.0,38.3,31.6,20.6,0000.0,0007.58,0002.58,0001.62
2022-07-01 01:25:00,,0827.6,5.00,0.00,29.6,28.6,00.0,38.4,31.6,20.5,0000.0,0006.81,0002.66,0001.63
2022-07-01 01:26:00,,0827.7,5.00,0.00,29.6,28.7,00.0,38.4,31.6,20.7,0000.0,0005.61,0002.71,0001.65
2022-07-01 01:27:00,,0827.7,5.00,0.00,29.7,28.7,00.0,38.4,31.7,20.7,0000.0,0004.95,0002.71,0001.66
2022-07-01 01:28:00,,0827.7,5.01,0.00,29.7,28.6,00.0,38.4,31.7,20.7,0000.0,0005.00,0002.68,0001.66
2022-07-01 01:29:00,,0827.6,4.99,0.00,29.7,27.8,00.0,38.3,31.5,20.9,0000.0,0005.11,0002.69,0001.67
2022-07-01 01:30:00,,0827.6,4.99,0.00,29.6,27.1,00.0,38.3,31.4,21.2,0000.0,0004.96,0002.64,0001.66
2022-07-01 01:31:00,,0827.7,5.00,0.00,29.6,27.0,00.0,38.3,31.3,21.2,0000.0,0005.13,0002.62,0001.66
2022-07-01 01:32:00,,0827.6,5.00,0.00,29.5,27.0,00.0,38.3,31.2,21.5,0000.0,0006.28,0002.60,0001.66
2022-07-01 01:33:00,,0827.6,5.00,0.00,29.4,27.2,00.0,38.2,31.2,21.5,0000.0,0006.17,0002.58,0001.66
2022-07-01 01:34:00,,0827.7,5.01,0.00,29.4,27.3,00.0,38.2,31.2,21.8,0000.0,0006.14,0002.57,0001.66
2022-07-01 01:35:00,,0827.6,5.00,0.00,29.4,27.5,00.0,38.2,31.2,22.0,0000.0,0007.52,0002.61,0001.66
2022-07-01 01:36:00,,0827.6,5.01,0.00,29.4,27.7,00.0,38.2,31.3,21.9,0000.0,0008.25,0002.63,0001.66
2022-07-01 01:37:00,,0827.6,5.00,0.00,29.4,27.8,00.0,38.2,31.3,22.0,0000.0,0008.49,0002.72,0001.66
2022-07-01 01:38:00,,0827.7,5.00,0.00,29.4,28.0,00.0,38.2,31.3,22.1,0000.0,0008.59,0002.76,0001.66
2022-07-01 01:39:00,,0827.7,5.01,0.00,29.4,28.1,00.0,38.2,31.4,22.2,0000.0,0008.58,0002.78,0001.67
2022-07-01 01:40:00,,0827.7,5.00,0.00,29.4,28.2,00.0,38.2,31.4,22.2,0000.0,0008.57,0002.78,0001.67
2022-07-01 01:41:00,,0827.7,5.00,0.00,29.5,28.3,00.0,38.2,31.4,22.2,0000.0,0008.69,0002.82,0001.67
2022-07-01 01:42:00,,0827.7,5.01,0.00,29.5,28.4,00.0,38.2,31.5,22.3,0000.0,0008.62,0002.78,0001.67
2022-07-01 01:43:00,,0827.7,4.99,0.00,29.5,28.5,00.0,38.2,31.5,22.6,0000.0,0007.94,0002.75,0001.65
2022-07-01 01:44:00,,0827.7,5.00,0.00,29.5,28.5,00.0,38.3,31.5,22.5,0000.0,0008.10,0002.83,0001.66
2022-07-01 01:45:00,,0827.7,5.00,0.00,29.6,28.6,00.0,38.3,31.6,22.5,0000.0,0008.33,0002.86,0001.66
2022-07-01 01:46:00,,0827.8,5.00,0.00,29.6,28.7,00.0,38.3,31.6,22.5,0000.0,0007.46,0002.78,0001.65
2022-07-01 01:47:00,,0827.7,5.00,0.00,29.6,28.7,00.0,38.3,31.6,22.6,0000.0,0006.48,0002.72,0001.64
2022-07-01 01:48:00,,0827.8,5.01,0.00,29.7,28.8,00.0,38.3,31.7,22.4,0000.0,0006.29,0002.64,0001.62
2022-07-01 01:49:00,,0827.9,5.00,0.00,29.7,28.8,00.0,38.4,31.7,22.4,0000.0,0006.31,0002.60,0001.61
2022-07-01 01:50:00,,0827.9,4.99,0.00,29.7,28.5,00.0,38.4,31.7,22.1,0000.0,0006.32,0002.62,0001.61
2022-07-01 01:51:00,,0827.9,5.00,0.00,29.7,27.8,00.0,38.3,31.5,22.1,0000.0,0006.11,0002.57,0001.61
2022-07-01 01:52:00,,0827.9,5.00,0.00,29.7,27.5,00.0,38.3,31.5,22.3,0000.0,0006.04,0002.61,0001.62
2022-07-01 01:53:00,,0827.8,5.00,0.00,29.6,27.5,00.0,38.3,31.4,22.6,0000.0,0006.25,0002.68,0001.63
2022-07-01 01:54:00,,0828.0,5.01,0.00,29.6,27.6,00.0,38.3,31.4,22.7,0000.0,0006.29,0002.73,0001.64
2022-07-01 01:55:00,,0827.9,5.01,0.00,29.5,27.7,00.0,38.3,31.4,22.9,0000.0,0007.56,0002.76,0001.64
2022-07-01 01:56:00,,0827.9,5.00,0.00,29.5,27.9,00.0,38.3,31.4,23.0,0000.0,0007.99,0002.81,0001.65
2022-07-01 01:57:00,,0827.9,4.99,0.00,29.5,28.0,00.0,38.3,31.4,23.1,0000.0,0007.81,0002.83,0001.66
2022-07-01 01:58:00,,0828.0,5.00,0.00,29.5,28.1,00.0,38.3,31.4,22.9,0000.0,0007.89,0002.87,0001.66
2022-07-01 01:59:00,,0828.0,4.99,0.00,29.5,28.3,00.0,38.3,31.5,23.0,0000.0,0007.77,0002.83,0001.67
